| time (UTC) | temp C | wind direction | speed KPH | gust KPH | rain 1hr cm | rain 24hr cm | rain mn cm | humidity % | barometer mb |
| 20260505175558 | 11 | 129 | 8.0 | 8.0 | 0.00 | 0.00 | 0.00 | 85 | 1009.3 |
| 20260505174558 | 11 | 134 | 4.8 | 6.4 | 0.00 | 0.00 | 0.00 | 84 | 1009.2 |
| 20260505113530 | 15 | 67 | 3.2 | 6.4 | 0.00 | 0.00 | 0.00 | 75 | 1008.3 |
| 20260505112530 | 13 | 341 | 3.2 | 6.4 | 0.00 | 0.00 | 0.00 | 76 | 1008.4 |
| 20260505111529 | 13 | 346 | 6.4 | 8.0 | 0.00 | 0.00 | 0.00 | 78 | 1008.7 |
| 20260505110530 | 13 | 352 | 3.2 | 4.8 | 0.00 | 0.00 | 0.00 | 77 | 1008.7 |
| 20260505101526 | 12 | 98 | 4.8 | 6.4 | 0.00 | 0.00 | 0.00 | 79 | 1008.7 |
| 20260505100526 | 12 | 85 | 3.2 | 3.2 | 0.00 | 0.00 | 0.00 | 80 | 1008.9 |
| 20260505095523 | 12 | 227 | 1.6 | 4.8 | 0.00 | 0.00 | 0.00 | 79 | 1009.0 |
| 20260505094522 | 12 | 82 | 4.8 | 4.8 | 0.00 | 0.00 | 0.00 | 82 | 1008.9 |
| 20260505093523 | 11 | 25 | 1.6 | 4.8 | 0.00 | 0.00 | 0.00 | 80 | 1009.1 |
| 20260505092522 | 12 | 59 | 4.8 | 6.4 | 0.00 | 0.00 | 0.00 | 79 | 1009.0 |
| 20260505091522 | 11 | 39 | 0.0 | 4.8 | 0.00 | 0.00 | 0.00 | 81 | 1009.1 |
| 20260505090518 | 11 | 18 | 3.2 | 4.8 | 0.00 | 0.00 | 0.00 | 80 | 1009.1 |
| 20260505085518 | 12 | 66 | 1.6 | 4.8 | 0.00 | 0.00 | 0.00 | 80 | 1009.1 |
| 20260505084518 | 11 | 80 | 0.0 | 4.8 | 0.00 | 0.00 | 0.00 | 81 | 1009.0 |
| 20260505083518 | 11 | 105 | 4.8 | 6.4 | 0.00 | 0.00 | 0.00 | 81 | 1009.3 |
| 20260505082518 | 11 | 105 | 6.4 | 6.4 | 0.00 | 0.00 | 0.00 | 83 | 1009.3 |
| 20260505081515 | 11 | 107 | 6.4 | 8.0 | 0.00 | 0.00 | 0.00 | 83 | 1009.3 |
| 20260505080516 | 11 | 53 | 3.2 | 4.8 | 0.00 | 0.00 | 0.00 | 86 | 1009.6 |
| 20260505075515 | 11 | 45 | 1.6 | 4.8 | 0.00 | 0.00 | 0.00 | 86 | 1009.4 |
| 20260505074515 | 11 | 62 | 4.8 | 4.8 | 0.00 | 0.00 | 0.00 | 86 | 1009.5 |
| 20260505073515 | 11 | 9 | 3.2 | 4.8 | 0.00 | 0.00 | 0.00 | 88 | 1009.6 |
| 20260505072512 | 10 | 125 | 3.2 | 4.8 | 0.00 | 0.00 | 0.00 | 88 | 1009.6 |
| 20260505071512 | 10 | 277 | 0.0 | 3.2 | 0.00 | 0.00 | 0.00 | 89 | 1009.8 |
| 20260505070512 | 10 | 95 | 3.2 | 4.8 | 0.00 | 0.00 | 0.00 | 90 | 1009.8 |
| 20260505065512 | 10 | 36 | 3.2 | 9.7 | 0.00 | 0.00 | 0.00 | 90 | 1009.8 |
| 20260505064512 | 10 | 250 | 1.6 | 4.8 | 0.00 | 0.00 | 0.00 | 90 | 1009.9 |
| 20260505063509 | 10 | 273 | 1.6 | 8.0 | 0.00 | 0.00 | 0.00 | 91 | 1009.6 |
| 20260505062510 | 10 | 100 | 8.0 | 8.0 | 0.00 | 0.00 | 0.00 | 91 | 1009.7 |
| 20260505061509 | 10 | 89 | 3.2 | 8.0 | 0.00 | 0.00 | 0.00 | 91 | 1009.7 |
| 20260505060509 | 10 | 47 | 4.8 | 8.0 | 0.00 | 0.00 | 0.00 | 91 | 1009.7 |
| 20260505055509 | 10 | 96 | 3.2 | 8.0 | 0.00 | 0.00 | 0.00 | 92 | 1009.8 |
| 20260505054505 | 9 | 101 | 4.8 | 9.7 | 0.00 | 0.00 | 0.00 | 94 | 1009.6 |
| 20260505053505 | 8 | 93 | 4.8 | 8.0 | 0.00 | 0.00 | 0.00 | 94 | 1009.7 |
| 20260505052506 | 8 | 60 | 4.8 | 8.0 | 0.00 | 0.00 | 0.00 | 95 | 1009.4 |
| 20260505051505 | 8 | 94 | 6.4 | 9.7 | 0.00 | 0.00 | 0.00 | 95 | 1009.4 |
| 20260505050505 | 8 | 99 | 8.0 | 9.7 | 0.00 | 0.00 | 0.00 | 95 | 1009.6 |
| 20260505041501 | 7 | 99 | 9.7 | 12.9 | 0.00 | 0.00 | 0.00 | 96 | 1009.5 |
| 20260505040459 | 7 | 83 | 4.8 | 8.0 | 0.00 | 0.00 | 0.00 | 95 | 1009.9 |
| 20260505035459 | 7 | 69 | 6.4 | 8.0 | 0.00 | 0.00 | 0.00 | 96 | 1009.7 |
| 20260505034459 | 6 | 107 | 8.0 | 9.7 | 0.00 | 0.00 | 0.00 | 95 | 1009.8 |
| 20260505033459 | 7 | 96 | 9.7 | 11.3 | 0.00 | 0.00 | 0.00 | 94 | 1009.9 |